User: anonymous   Login
Location: Unspecified
(0.0000°N, 0.0000°E)
Time: 16:36:52
(UTC+00:00)
Language:

OPTUS 1C - Orbit

View from above orbital plane
View from above orbital plane
View from above satellite
View from above satellite

Ground track
Ground track

The orbit data is extracted from the following two-line orbital elements,

1 27831U 03028B   17147.72228076 -.00000161 +00000-0 +00000-0 0  9997
2 27831 000.0423 180.8925 0002818 266.4934 214.0945 01.00270797019893
Epoch (UTC): 27 May 2017 17:20:05
Eccentricity: 0.0002818
inclination: 0.0423°
perigee height: 35774 km
apogee height: 35798 km
right ascension of ascending node: 180.8925°
argument of perigee: 266.4934°
revolutions per day: 1.00270797
mean anomaly at epoch: 214.0945°
orbit number at epoch: 1989

The dashed part of the orbit path shows where the satellite is in the earth's shadow,  

DLR